Weather in Soldatskoye

Russia / Lipetsk Oblast     52°07′05″N   38°19′52″E
temp.,
°C
wind,
m/s
gust,
m/s
humid.,
%
clouds,
%
prec.,
mm/h
press.,
hPa
HPBL,
m
9 may, sun
sun900:00+9sw4895100 0.1 1006408
03:00+4w71094100 0.4 1008602
06:00+4wnw61196100 0.1 1008602
09:00+4wnw71296100 0.3 1011887
12:00+7nw91374100 0.1 10131249
15:00+8nw81175100 0.4 10161334
18:00+8nnw812755 0.3 10181218
21:00+4nw5118054 0.3 1020356
10 may, mon
mon1000:00+4nw513845 0.0 1021348
03:00+3nnw411865 0.0 1023290
06:00+4nnw6148293 0.0 1023402
09:00+9n915575 0.0 10231496
12:00+11n11144932 0.0 10221568
15:00+10n91461100 0.0 10211305
18:00+9nne91672100 0.1 10211056
21:00+8nne91986100 1.3 1020664
11 may, tue
tue1100:00+8nne91989100 0.6 1019681
03:00+9nne91989100 0.9 1018530
06:00+9ne91891100 0.1 1019582
09:00+11ene81490100 0.4 1020916
12:00+11e7107957 0.7 10211054
15:00+15e8125322 0.7 10211987
18:00+12e812685 0.0 10231496
21:00+8ese5128093 0.1 1025447
12 may, wed
wed1200:00+7e4982100 0.0 1025254
03:00+7ene4980100 0.0 1024271
06:00+7ene4108498 0.0 1023291
09:00+11e61177100 0.0 1022601
12:00+14ese7106258 0.9 10211528
15:00+15ese696683 2.3 10191257
18:00+14se610755 1.7 1019797
21:00+10ese4108764 1.8 1019184
13 may, thu
thu1300:00+10se4118778 0.1 1019274
03:00+10ese498918 0.1 1019191
06:00+9ese49885 0.0 1020199
09:00+15se4768100 0.0 1019484
12:00+19se565629 0.0 10191245
15:00+20se5652100 0.0 10181476
18:00+20se4662100 0.0 1017542
21:00+15ese3480100 0.0 101753